This is the latest recevied weather packets stored in our database for station/object EB5AGF-13. If no packets are shown the sender has not sent any weather packets the latest 10 day(s).
| Time | Temp. | Humidity | Pressure | Rain* | Wind** | Luminosity | Snow |
|---|---|---|---|---|---|---|---|
| 1778137254 | 18.33° C | 84% | 1008.6 hPa | 0 mm | 0.89 m/s, 2° | 61 W/m² | - |
| 1778136950 | 18.33° C | 83% | 1008.4 hPa | 0 mm | 1.34 m/s, 1° | 66 W/m² | - |
| 1778136646 | 18.33° C | 83% | 1008.6 hPa | 0 mm | 0.45 m/s, 3° | 112 W/m² | - |
| 1778136342 | 17.78° C | 84% | 1008 hPa | 0 mm | 0.89 m/s, 19° | 80 W/m² | - |
| 1778136038 | 17.78° C | 84% | 1008.1 hPa | 0 mm | 0.45 m/s, 18° | 119 W/m² | - |
| 1778135734 | 17.78° C | 85% | 1008.1 hPa | 0 mm | 0.45 m/s, 33° | 77 W/m² | - |
| 1778135431 | 17.78° C | 85% | 1008 hPa | 0 mm | 0.45 m/s, 28° | 72 W/m² | - |
| 1778111927 | 17.22° C | 83% | 1008.2 hPa | 0 mm | 0.89 m/s, 314° | 0 W/m² | - |
| 1778111622 | 17.22° C | 82% | 1008.2 hPa | 0 mm | 0.45 m/s, 312° | 0 W/m² | - |
| 1778111318 | 17.22° C | 82% | 1008.3 hPa | 0 mm | 1.34 m/s, 305° | 0 W/m² | - |
| 1778111013 | 17.22° C | 82% | 1008.4 hPa | 0 mm | 0.89 m/s, 328° | 0 W/m² | - |
| 1778110711 | 17.78° C | 81% | 1008.5 hPa | 0 mm | 0.45 m/s, 311° | 0 W/m² | - |
| 1778110406 | 17.78° C | 81% | 1008.6 hPa | 0 mm | 0.45 m/s, 347° | 0 W/m² | - |
| 1778110102 | 17.22° C | 81% | 1008.6 hPa | 0 mm | 0.45 m/s, 313° | 0 W/m² | - |
| 1778109798 | 17.22° C | 81% | 1008.5 hPa | 0 mm | 0.89 m/s, 316° | 0 W/m² | - |
| 1778109495 | 17.22° C | 81% | 1008.5 hPa | 0 mm | 1.34 m/s, 319° | 0 W/m² | - |
| 1778109190 | 17.22° C | 81% | 1008.6 hPa | 0 mm | 0.45 m/s, 310° | 0 W/m² | - |
| 1778108886 | 17.78° C | 81% | 1008.8 hPa | 0 mm | 0.89 m/s, 330° | 0 W/m² | - |
| 1778108583 | 17.22° C | 81% | 1008.7 hPa | 0 mm | 0.89 m/s, 325° | 0 W/m² | - |
| 1778108278 | 17.22° C | 81% | 1008.6 hPa | 0 mm | 0 m/s | 0 W/m² | - |
| 1778107974 | 17.22° C | 81% | 1008.7 hPa | 0 mm | 0 m/s | 0 W/m² | - |
| 1778107670 | 17.78° C | 81% | 1008.8 hPa | 0 mm | 0.45 m/s, 1° | 0 W/m² | - |
| 1778107367 | 17.78° C | 81% | 1008.9 hPa | 0 mm | 0 m/s | 0 W/m² | - |
| 1778107062 | 17.78° C | 81% | 1008.7 hPa | 0 mm | 0 m/s | 0 W/m² | - |
| 1778106758 | 17.78° C | 81% | 1008.8 hPa | 0 mm | 0 m/s | 0 W/m² | - |
* Rain latest hour (hover to see other rain measurements)
** Current wind speed in m/s (hover to see current wind gust speed)